Content
SEND FEEDBACK

Daily
Averages
Monthly
Summary
Switzerland

VERSOIX, SWITZERLAND


Home > Europe > Switzerland
Elevation: 1365 feet     Latitude: 46 12N     Longitude: 006 12E

WEATHER
 
SELECT A DAY
Number of Records: 313,008;   Date Range: 7/1/96 - 10/18/14
 
SHARE

PRINT THIS DATA

[ ← Previous Day ]
WEATHER ALMANAC - MARCH 31, 2013
[ Next Day → ]
[ °C ]   °F
Weather ElementAverageHighLow
Temperature41.5 °F48.2 °F (3:20 pm)35.6 °F (12:50 am)
Dewpoint32.6 °F41 °F (12:20 am)24 °F (2:00 pm)
Humidity70.3 %100 % (1:20 am)29 % (2:00 pm)
Barometer29.69 in29.76 in (10:00 am)29.59 in (12:20 am)
Wind Speed8.5 mph15 mph (6:00 pm)
Weather ElementAverage
Visibility5.6 mi
Wind DirectionNE (44.7 °)

Weather ElementTotal
Precipitation---
Heating Degree Days23.1 (Base 65)
Averaged from 66 records on March 31, 2013
WEATHER CONDITIONS BREAKOUT
WIND DIRECTION BREAKOUT
WEATHER BY HOUR - MARCH 31, 2013
[ °C ]   °F
Local TimeTemperatureDewpointHumidityBarometerVisibilityWind DirectionWind SpeedGust SpeedPrecipitationEventsConditions
12:00 AM37.0 °F26.0 °F54 %29.74 inNNE (20°)8.1 mph
12:20 AM42.8 °F41.0 °F93 %29.59 in3.1 miCalmRainLight Rain
12:20 AM37.4 °F26.6 °F65 %29.68 in5.0 miNorth (10°)6.9 mph
12:50 AM35.6 °F26.6 °F70 %29.68 in5.0 miVariable3.5 mph
12:50 AM42.8 °F41.0 °F93 %29.59 inVariable2.3 mphRainLight Rain
1:00 AM43.0 °F41.0 °F91 %29.64 in2.0 miNorth (350°)2.3 mphRainLight Rain
1:20 AM41.0 °F41.0 °F100 %29.62 in1.6 miVariable1.2 mphMostly Cloudy
1:50 AM41.0 °F41.0 °F100 %29.59 in1.1 miNE (50°)1.2 mphMostly Cloudy
3:00 AM43.0 °F41.0 °F91 %29.65 inENE (60°)3.5 mph
3:50 AM41.0 °F41.0 °F100 %29.62 in4.3 miNE (50°)5.8 mphMostly Cloudy
4:00 AM42.0 °F39.0 °F86 %29.65 inNE (40°)5.8 mph
4:20 AM41.0 °F41.0 °F100 %29.62 in6.2 miNNE (30°)4.6 mphMostly Cloudy
4:50 AM41.0 °F39.2 °F93 %29.62 in6.2 miNE (50°)8.1 mphMostly Cloudy
5:20 AM39.2 °F37.4 °F93 %29.62 in6.2 miENE (60°)11.5 mphRainLight Rain Showers
5:50 AM39.2 °F35.6 °F87 %29.65 in6.2 miNE (50°)11.5 mphMostly Cloudy
6:00 AM38.0 °F35.0 °F87 %29.69 inNE (40°)12.7 mph
6:20 AM37.4 °F35.6 °F93 %29.65 in6.2 miNE (40°)12.7 mphRainLight Rain Showers
6:50 AM37.4 °F35.6 °F93 %29.65 in6.2 miNE (40°)11.5 mphRainLight Rain Showers
7:00 AM37.0 °F35.0 °F87 %29.72 inNE (40°)11.5 mph
7:20 AM37.4 °F35.6 °F93 %29.68 in6.2 miNE (40°)9.2 mphRainLight Rain Showers
7:50 AM37.4 °F35.6 °F93 %29.68 in5.6 miNE (40°)6.9 mphRainLight Rain Showers
8:00 AM37.0 °F34.0 °F85 %29.74 in7.0 miNE (50°)10.4 mphRainLight Rain Showers
8:20 AM37.4 °F35.6 °F93 %29.68 in6.2 miNE (50°)8.1 mphMostly Cloudy
8:50 AM37.4 °F35.6 °F93 %29.71 in5.6 miNE (50°)5.8 mphMostly Cloudy
9:00 AM38.0 °F35.0 °F82 %29.75 inNE (40°)6.9 mph
9:20 AM37.4 °F35.6 °F93 %29.71 in5.6 miNNE (30°)5.8 mphMostly Cloudy
9:50 AM39.2 °F35.6 °F87 %29.71 in5.6 miNE (50°)4.6 mphMostly Cloudy
10:00 AM39.0 °F35.0 °F78 %29.76 inNNE (30°)6.9 mph
10:20 AM39.2 °F35.6 °F87 %29.71 in5.6 miNNE (20°)5.8 mphMostly Cloudy
10:50 AM41.0 °F35.6 °F81 %29.71 in6.2 miENE (60°)9.2 mphMostly Cloudy
11:20 AM41.0 °F33.8 °F76 %29.71 in6.2 miENE (60°)8.1 mphScattered Clouds
11:50 AM42.8 °F35.6 °F76 %29.71 in6.2 miENE (60°)10.4 mphScattered Clouds
12:00 PM43.0 °F32.0 °F54 %29.75 inENE (60°)9.2 mph
12:20 PM44.6 °F32.0 °F61 %29.71 in6.2 miENE (60°)8.1 mphMostly Cloudy
12:50 PM44.6 °F32.0 °F61 %29.71 in6.2 miENE (70°)9.2 mphScattered Clouds
1:00 PM45.0 °F29.0 °F40 %29.74 inNE (50°)8.1 mph
1:20 PM46.4 °F26.6 °F46 %29.71 in6.2 miENE (60°)6.9 mphScattered Clouds
1:50 PM46.4 °F26.6 °F46 %29.71 in6.2 miNE (40°)8.1 mphScattered Clouds
2:00 PM46.0 °F24.0 °F29 %29.73 in6.0 miNNE (30°)9.2 mphHaze
2:20 PM46.4 °F26.6 °F46 %29.71 in6.2 miNE (50°)5.8 mphPartly Cloudy
2:50 PM46.4 °F26.6 °F46 %29.71 in6.2 miENE (70°)6.9 mphPartly Cloudy
3:00 PM46.0 °F27.0 °F35 %29.73 inNE (50°)6.9 mph
3:20 PM48.2 °F28.4 °F46 %29.71 in6.2 miNE (50°)9.2 mphPartly Cloudy
3:50 PM46.4 °F28.4 °F50 %29.68 in6.2 miNE (50°)9.2 mphPartly Cloudy
4:00 PM47.0 °F27.0 °F32 %29.72 inNE (40°)11.5 mph
4:20 PM46.4 °F28.4 °F50 %29.68 in6.2 miENE (60°)12.7 mphPartly Cloudy
4:50 PM46.4 °F28.4 °F50 %29.68 in6.2 miNE (40°)10.4 mphPartly Cloudy
5:20 PM46.4 °F28.4 °F50 %29.68 in6.2 miNE (40°)11.5 mphPartly Cloudy
5:50 PM46.4 °F30.2 °F53 %29.68 in5.6 miNE (40°)12.7 mphPartly Cloudy
6:00 PM46.0 °F29.0 °F38 %29.72 inNE (50°)15.0 mph
6:20 PM44.6 °F30.2 °F57 %29.68 in6.2 miNE (40°)11.5 mphPartly Cloudy
6:50 PM44.6 °F30.2 °F57 %29.71 in6.2 miNE (40°)9.2 mphPartly Cloudy
7:00 PM43.0 °F30.0 °F47 %29.73 inNNE (30°)11.5 mph
7:20 PM42.8 °F30.2 °F61 %29.71 in6.2 miNE (40°)9.2 mphPartly Cloudy
7:50 PM42.8 °F30.2 °F61 %29.71 in5.6 miNE (40°)11.5 mphPartly Cloudy
8:00 PM42.0 °F29.0 °F49 %29.75 in6.0 miNE (40°)11.5 mphHaze
8:20 PM41.0 °F30.2 °F65 %29.71 in5.6 miNE (40°)11.5 mphPartly Cloudy
8:50 PM41.0 °F30.2 °F65 %29.71 in5.6 miNE (40°)10.4 mphPartly Cloudy
9:00 PM40.0 °F31.0 °F60 %29.75 inNE (40°)11.5 mph
9:20 PM39.2 °F32.0 °F75 %29.71 inNNE (30°)10.4 mphClear
9:50 PM39.2 °F32.0 °F75 %29.71 in5.6 miNNE (30°)12.7 mph
10:00 PM38.0 °F30.0 °F65 %29.75 inNNE (30°)13.8 mph
10:20 PM39.2 °F30.2 °F70 %29.71 in5.6 miNNE (30°)11.5 mph
10:50 PM37.4 °F30.2 °F75 %29.71 in5.0 miNNE (20°)8.1 mph
11:20 PM37.4 °F28.4 °F70 %29.71 in5.0 miNNE (20°)8.1 mph
11:50 PM37.4 °F26.6 °F65 %29.68 in5.0 miNNE (20°)8.1 mph
Hourly data recorded from LSGG, located miles away from Versoix, Switzerland







STORIES FROM OUR PARTNERS